Tracking 23731 objects as of 26-Sep-2021
HD Live streaming from Space Station
objects crossing your sky now

STARLINK-2601

Track STARLINK-2601 now!
10-day predictions
STARLINK-2601 is classified as:


NORAD ID: 48384
Int'l Code: 2021-038AH
Perigee: 553.0 km
Apogee: 555.7 km
Inclination: 53.1 °
Period: 95.6 minutes
Semi major axis: 6925 km
RCS: Unknown
Launch date: May 4, 2021
Source: United States (US)
Launch site: AIR FORCE EASTERN TEST RANGE (AFETR)
aabbcc
Your satellite tracking list
Your tracking list is empty




NASA's NSSDC Master Catalog

Two Line Element Set (TLE):
1 48384U 21038AH  21268.22295512  .00001265  00000-0  10380-3 0  9997
2 48384  53.0529  93.1014 0001966  91.0376 269.0839 15.06397904 23241
Source of the keplerian elements: AFSPC